30.06.2024;16:00;3
30.06.2024;15:00;4
30.06.2024;14:00;4
30.06.2024;13:00;4
30.06.2024;12:00;4
30.06.2024;11:00;3
30.06.2024;10:00;5
30.06.2024;09:00;4
30.06.2024;08:00;5
30.06.2024;07:00;4
30.06.2024;06:00;4
30.06.2024;05:00;3
30.06.2024;04:00;5
30.06.2024;03:00;6
30.06.2024;02:00;8
30.06.2024;01:00;11
30.06.2024;00:00;17
29.06.2024;23:00;12
29.06.2024;22:00;8
29.06.2024;21:00;9
29.06.2024;20:00;12
29.06.2024;19:00;10
29.06.2024;18:00;7
29.06.2024;17:00;6
29.06.2024;16:00;6
29.06.2024;15:00;7
29.06.2024;14:00;5
29.06.2024;13:00;5
29.06.2024;12:00;6
29.06.2024;11:00;6
29.06.2024;10:00;7
29.06.2024;09:00;10
29.06.2024;08:00;13
29.06.2024;07:00;15
29.06.2024;06:00;15
29.06.2024;05:00;23
29.06.2024;04:00;29
29.06.2024;03:00;24
29.06.2024;02:00;31
29.06.2024;01:00;22
29.06.2024;00:00;18
28.06.2024;23:00;13
28.06.2024;22:00;7
28.06.2024;21:00;5
28.06.2024;20:00;6
28.06.2024;19:00;6
28.06.2024;18:00;9
28.06.2024;17:00;7
